User: anonymous   Login
Location: Lobos
(35.3000°S, 59.0940°W)
Time: 09:33:00
(UTC-03:00)
Language:

STARLINK-1756 - Orbit

View from above orbital plane
View from above orbital plane
View from above satellite
View from above satellite

Ground track
Ground track

The orbit data is extracted from the following two-line orbital elements,

1 46379C 20062BH  21207.09929754  .00053277  00000-0  32297-3 0  2078
2 46379  53.0332 269.6183 0008544 356.7072  72.8877 15.76747802    10
Epoch (UTC): 26 July 2021 02:22:59
Eccentricity: 0.0008544
inclination: 53.0332°
perigee height: 334 km
apogee height: 345 km
right ascension of ascending node: 269.6183°
argument of perigee: 356.7072°
revolutions per day: 15.76747802
mean anomaly at epoch: 72.8877°
orbit number at epoch: 1

The dashed part of the orbit path shows where the satellite is in the earth's shadow,  

DLR